Probability
0 0 0 0 0 0 0 0 0 0 0 0 0 0 0 0 0 0 0 6 48 97 100 100 100 100 100 100 100 100 100 100 100 100 100 100 100 100 100 100 100 100 100 100 100 100 100 100 100
0 0 0 0 0 0 0 0 0 0 0 0 0 6 3 23 0 0 0 42 90 100 100 100 100 100 100 100 100 100 100 100 100 100 100 100 100 100 100 100 100 100 100 100 100 100 100 100 100
0 0 0 0 0 0 0 0 0 0 0 0 0 3 16 29 13 0 6 71 97 100 100 100 100 100 100 100 100 100 100 100 100 100 100 100 100 100 100 100 100 100 100 100 100 94 94 90 90
0 0 0 0 0 0 0 0 0 0 0 0 0 3 16 45 13 6 48 84 97 100 100 100 100 100 100 100 100 100 100 100 100 100 100 100 100 100 100 100 100 100 100 90 77 81 81 81 74
0 0 0 0 0 0 0 0 0 0 0 0 0 6 32 58 26 39 71 84 94 100 100 100 100 100 100 100 100 100 100 100 100 100 100 100 100 100 100 100 97 97 94 84 71 55 55 58 52
0 0 0 0 0 0 0 0 0 0 0 3 0 13 48 32 42 58 74 77 94 100 100 100 100 100 100 100 100 100 100 100 100 100 100 100 100 100 100 100 97 97 97 84 68 39 29 29 39
0 0 0 0 0 0 0 0 0 0 0 0 3 32 39 23 32 39 61 81 97 97 100 100 100 100 100 100 100 100 100 100 100 100 100 100 100 100 100 97 97 97 94 84 58 39 35 29 26
0 0 0 0 0 0 0 0 0 0 0 0 6 35 35 23 16 29 77 87 97 97 100 100 100 100 100 100 100 100 100 100 100 100 100 100 100 100 100 97 97 97 87 81 68 61 39 39 35
0 0 0 0 0 0 0 0 0 0 0 3 0 16 45 29 19 45 74 90 97 97 100 100 100 100 100 100 100 100 100 100 100 100 100 100 100 100 100 100 97 97 94 90 81 77 74 68 48
0 0 0 0 0 0 0 0 0 0 0 3 13 42 48 29 26 35 45 77 94 97 97 100 100 100 100 100 100 100 100 100 100 100 100 94 87 87 100 100 97 97 94 97 94 87 74 52 29
0 0 0 0 0 0 0 0 0 0 0 0 19 48 55 35 29 19 19 23 58 84 97 94 94 100 100 100 100 100 100 100 97 94 87 81 58 65 81 71 81 90 94 87 55 48 42 23 19
0 0 0 0 0 0 0 0 0 0 0 0 13 45 65 58 29 16 10 10 19 48 87 94 90 94 90 74 97 90 87 90 87 77 74 48 26 16 23 16 23 68 55 45 26 13 10 13 13
0 0 0 0 0 0 0 0 0 0 0 0 16 55 71 65 48 26 19 13 6 16 48 65 84 87 81 52 71 87 68 77 68 58 58 42 26 10 3 3 10 10 16 10 10 6 6 3 0
0 0 0 0 0 0 0 0 0 0 3 13 42 65 68 68 58 58 39 26 13 10 19 39 61 61 58 39 55 55 55 42 42 42 45 39 13 3 0 0 0 3 0 3 3 3 0 0 0
0 0 0 0 0 0 0 0 0 0 13 13 39 48 68 68 68 68 74 61 26 19 10 16 35 42 39 32 35 35 32 35 29 23 23 32 13 3 0 0 0 0 0 0 0 0 0 0 0
0 0 0 0 0 0 0 0 0 0 10 13 23 29 42 42 45 52 61 68 61 35 23 19 35 35 26 29 23 16 13 10 6 3 3 10 6 0 0 0 0 0 0 0 0 0 0 0 0
0 0 0 0 0 0 0 0 3 3 6 10 19 19 23 19 29 29 39 61 74 61 48 32 26 23 19 13 10 6 6 6 3 3 0 6 10 3 3 0 0 0 0 0 0 0 0 0 0
0 0 0 0 0 0 0 0 3 3 6 6 13 13 16 16 16 16 26 29 55 65 58 45 26 23 16 10 13 13 16 6 3 3 0 0 0 0 0 0 0 0 0 0 0 0 0 0 0
0 0 0 0 0 0 0 3 6 10 10 6 10 6 16 29 23 29 32 26 39 55 55 48 45 35 19 23 23 29 19 10 10 0 0 0 0 0 3 0 0 0 0 0 0 0 0 0 0
0 0 0 0 0 0 0 3 10 3 3 10 13 13 16 23 26 29 19 29 26 29 42 39 45 52 35 39 35 26 19 13 6 3 0 0 0 0 0 0 0 0 0 0 0 0 0 0 0
0 0 0 0 0 0 0 3 3 0 6 10 6 6 13 16 16 13 16 16 19 13 23 32 26 42 42 32 35 26 6 0 0 0 0 0 0 0 0 0 0 0 0 0 0 0 0 0 0
0 0 0 0 0 0 0 0 3 6 13 10 6 3 3 3 6 19 16 16 13 19 23 29 26 35 35 35 39 32 29 13 6 3 0 0 0 0 0 0 0 0 0 0 0 0 0 0 0
0 0 0 0 0 0 0 0 3 0 6 10 6 3 3 3 6 3 3 6 10 13 16 13 16 10 23 23 29 19 13 3 3 0 0 0 0 0 0 0 0 0 0 0 0 0 0 0 0
0 0 0 0 0 0 0 0 3 3 6 6 3 3 3 3 3 3 3 3 3 3 3 6 10 6 6 3 3 6 3 3 3 0 0 0 0 0 0 0 0 0 0 0 0 0 0 0 0
0 0 0 0 0 0 0 0 0 10 3 3 3 3 3 3 3 3 0 0 0 0 0 0 0 0 0 0 0 0 0 3 3 0 0 0 0 0 0 0 0 0 0 0 0 0 0 0 0
0 0 0 0 0 0 0 0 13 3 3 3 3 3 0 0 0 0 0 0 0 0 0 0 0 0 0 0 0 0 0 0 0 0 0 0 0 0 0 0 0 0 0 0 0 0 0 0 0
0 0 0 0 0 0 0 6 10 3 3 3 3 3 0 0 0 0 0 0 0 0 0 0 0 0 0 0 0 0 0 0 0 0 0 0 0 0 0 0 0 0 0 0 0 0 0 0 0
0 0 0 0 0 0 0 0 0 0 3 3 3 0 0 0 0 0 0 0 0 0 0 0 0 0 0 0 0 0 0 0 0 0 0 0 0 0 0 0 0 0 0 0 0 0 0 0 0
0 0 0 0 0 0 0 0 0 0 0 3 0 0 0 0 0 0 0 0 0 0 0 0 0 0 0 0 0 0 0 0 0 0 0 0 0 0 0 0 0 0 0 0 0 0 0 0 0
0 0 0 0 0 0 0 0 0 0 0 0 0 0 0 0 0 0 0 0 0 0 0 0 0 0 0 0 0 0 0 0 0 0 0 0 0 0 0 0 0 0 0 0 0 0 0 0 0
Height
5869 5872 5874 5877 5879 5881 5881 5882 5882 5883 5884 5884 5885 5885 5886 5888 5889 5891 5890 5888 5888 5889 5889 5890 5891 5892 5893 5894 5894 5896 5897 5898 5899 5900 5901 5901 5902 5902 5902 5902 5902 5902 5902 5902 5902 5902 5902 5901 5901
5866 5869 5872 5874 5876 5878 5880 5880 5881 5882 5883 5883 5883 5884 5885 5885 5886 5886 5886 5886 5886 5887 5888 5888 5889 5890 5891 5892 5893 5894 5895 5896 5897 5898 5899 5899 5900 5900 5901 5901 5901 5901 5900 5900 5900 5900 5900 5900 5900
5862 5865 5869 5871 5873 5875 5877 5878 5879 5880 5881 5881 5882 5882 5883 5884 5884 5885 5885 5885 5885 5885 5886 5887 5888 5889 5890 5891 5892 5893 5894 5895 5895 5896 5897 5898 5898 5899 5899 5899 5899 5899 5899 5898 5898 5898 5898 5898 5898
5859 5862 5865 5868 5870 5873 5875 5875 5876 5877 5879 5880 5880 5881 5882 5883 5883 5884 5883 5883 5883 5884 5884 5885 5886 5887 5888 5890 5891 5892 5892 5893 5894 5895 5895 5896 5896 5897 5897 5897 5897 5897 5897 5896 5896 5896 5896 5896 5896
5855 5857 5860 5864 5868 5871 5872 5873 5874 5875 5877 5878 5879 5880 5881 5882 5882 5883 5882 5882 5882 5883 5883 5884 5885 5886 5887 5888 5889 5890 5891 5892 5893 5894 5894 5895 5895 5895 5895 5895 5895 5895 5895 5895 5895 5895 5895 5895 5895
5852 5853 5856 5861 5866 5868 5870 5870 5871 5872 5874 5876 5877 5878 5880 5881 5881 5882 5882 5882 5882 5882 5883 5883 5884 5885 5886 5887 5888 5889 5890 5891 5892 5893 5893 5894 5894 5894 5894 5894 5894 5894 5894 5894 5893 5893 5893 5893 5893
5848 5850 5853 5858 5862 5865 5867 5867 5868 5870 5871 5874 5876 5877 5878 5880 5881 5881 5881 5881 5881 5882 5882 5882 5883 5884 5885 5886 5887 5888 5889 5890 5891 5892 5892 5893 5893 5894 5894 5894 5894 5894 5893 5893 5892 5892 5891 5891 5891
5844 5847 5849 5853 5858 5862 5863 5864 5865 5867 5869 5872 5874 5876 5877 5879 5880 5880 5881 5881 5881 5881 5882 5882 5883 5884 5885 5886 5887 5888 5889 5890 5891 5891 5892 5892 5893 5893 5893 5893 5893 5893 5892 5892 5891 5890 5890 5889 5889
5839 5844 5846 5850 5854 5858 5859 5860 5862 5863 5866 5869 5871 5874 5875 5877 5878 5880 5880 5880 5881 5881 5881 5882 5882 5883 5885 5886 5887 5888 5889 5890 5890 5891 5891 5892 5892 5892 5893 5893 5893 5892 5891 5891 5890 5888 5887 5887 5886
5835 5840 5843 5846 5849 5852 5853 5855 5857 5860 5863 5866 5869 5872 5874 5875 5877 5879 5880 5880 5881 5881 5882 5882 5883 5884 5885 5886 5887 5888 5889 5889 5890 5890 5891 5891 5892 5892 5892 5892 5891 5891 5890 5889 5888 5886 5885 5884 5883
5831 5835 5838 5839 5842 5845 5848 5850 5852 5856 5860 5864 5867 5869 5872 5874 5876 5878 5879 5880 5880 5881 5882 5882 5883 5884 5885 5886 5886 5887 5888 5889 5889 5890 5890 5890 5891 5891 5891 5890 5890 5889 5889 5887 5886 5885 5883 5881 5880
5825 5829 5831 5834 5836 5839 5842 5845 5848 5852 5857 5860 5864 5867 5870 5872 5875 5876 5878 5879 5880 5881 5882 5882 5883 5884 5885 5886 5886 5887 5887 5888 5888 5889 5889 5889 5889 5889 5889 5888 5888 5887 5886 5885 5884 5883 5881 5880 5878
5819 5823 5825 5828 5831 5834 5838 5841 5844 5849 5853 5857 5861 5865 5868 5870 5873 5875 5876 5878 5879 5881 5881 5882 5883 5884 5885 5885 5886 5886 5886 5887 5887 5887 5887 5887 5888 5887 5887 5886 5886 5885 5884 5883 5882 5880 5879 5877 5876
5813 5817 5821 5824 5827 5830 5834 5837 5841 5846 5850 5854 5858 5862 5865 5868 5870 5873 5875 5877 5879 5880 5881 5882 5883 5883 5884 5884 5885 5885 5885 5885 5886 5885 5885 5885 5885 5885 5884 5883 5883 5882 5881 5880 5879 5878 5876 5875 5873
5809 5814 5818 5821 5823 5827 5831 5834 5839 5844 5847 5851 5855 5859 5862 5865 5868 5871 5873 5875 5877 5878 5879 5880 5881 5882 5883 5883 5883 5884 5884 5883 5883 5883 5883 5882 5882 5881 5881 5880 5879 5878 5877 5876 5875 5874 5873 5871 5870
5805 5810 5814 5817 5820 5823 5828 5832 5836 5839 5843 5847 5852 5856 5859 5862 5865 5868 5870 5872 5873 5875 5877 5878 5879 5880 5880 5881 5881 5881 5881 5881 5880 5880 5880 5879 5878 5877 5877 5876 5875 5873 5872 5871 5870 5869 5868 5867 5865
5801 5806 5810 5814 5817 5819 5824 5828 5832 5835 5839 5844 5848 5852 5856 5859 5862 5864 5866 5868 5870 5872 5873 5875 5876 5876 5877 5877 5877 5878 5877 5877 5876 5876 5875 5874 5873 5872 5871 5870 5869 5867 5866 5865 5864 5863 5862 5861 5860
5797 5802 5806 5810 5813 5816 5820 5825 5828 5831 5835 5839 5844 5848 5852 5855 5858 5860 5862 5864 5866 5868 5869 5870 5871 5872 5872 5873 5873 5874 5873 5872 5871 5870 5869 5868 5867 5866 5864 5863 5862 5860 5859 5858 5857 5857 5856 5855 5854
5793 5798 5802 5806 5810 5813 5817 5821 5824 5827 5831 5835 5839 5843 5847 5851 5854 5856 5859 5861 5862 5863 5865 5866 5866 5867 5867 5868 5869 5868 5867 5866 5865 5863 5862 5861 5859 5858 5857 5855 5854 5853 5852 5851 5850 5850 5849 5848 5847
5789 5794 5799 5803 5806 5810 5814 5817 5821 5824 5827 5831 5835 5839 5843 5846 5850 5852 5854 5856 5857 5858 5860 5861 5861 5861 5862 5863 5862 5861 5859 5858 5857 5855 5854 5852 5851 5850 5848 5847 5846 5845 5844 5843 5842 5842 5841 5840 5839
5786 5791 5796 5800 5803 5807 5811 5814 5817 5820 5823 5827 5830 5834 5838 5842 5845 5847 5849 5851 5852 5853 5854 5855 5855 5856 5856 5856 5855 5853 5852 5850 5849 5848 5846 5844 5843 5842 5840 5839 5838 5837 5836 5835 5834 5833 5832 5831 5831
5783 5788 5792 5796 5800 5804 5808 5811 5814 5816 5819 5822 5826 5829 5833 5837 5840 5842 5844 5845 5847 5848 5848 5849 5849 5849 5850 5849 5847 5846 5844 5842 5841 5838 5836 5836 5835 5834 5833 5832 5830 5828 5828 5827 5826 5825 5824 5823 5822
5781 5785 5790 5794 5798 5802 5805 5808 5811 5813 5816 5819 5822 5825 5828 5832 5834 5837 5839 5840 5841 5842 5842 5842 5842 5842 5842 5841 5840 5839 5837 5834 5832 5830 5828 5827 5827 5827 5825 5824 5823 5822 5820 5819 5818 5816 5815 5813 5812
5778 5783 5787 5792 5795 5799 5802 5806 5808 5811 5813 5816 5818 5821 5824 5827 5829 5831 5832 5834 5834 5835 5835 5835 5835 5835 5834 5833 5832 5832 5829 5826 5823 5821 5820 5819 5819 5819 5818 5817 5816 5814 5813 5811 5809 5807 5805 5803 5802
5776 5781 5785 5789 5793 5796 5799 5802 5805 5807 5810 5812 5815 5817 5819 5821 5823 5824 5826 5827 5827 5828 5828 5828 5828 5827 5826 5825 5823 5822 5820 5818 5816 5814 5813 5812 5811 5810 5809 5808 5807 5805 5804 5801 5800 5797 5796 5794 5792
5774 5779 5784 5788 5791 5793 5796 5797 5801 5803 5806 5808 5810 5812 5814 5815 5817 5818 5819 5819 5820 5820 5820 5820 5819 5818 5817 5816 5814 5813 5812 5810 5808 5807 5806 5804 5803 5802 5800 5799 5797 5796 5794 5791 5789 5788 5786 5783 5781
5772 5776 5781 5784 5787 5790 5791 5794 5796 5799 5801 5803 5804 5806 5807 5809 5809 5810 5811 5811 5811 5812 5812 5811 5811 5809 5809 5808 5806 5804 5803 5801 5800 5798 5796 5795 5793 5792 5791 5789 5787 5785 5783 5781 5778 5776 5774 5771 5769
5771 5774 5778 5781 5783 5785 5787 5789 5792 5794 5795 5797 5798 5799 5800 5801 5802 5802 5802 5802 5802 5802 5802 5802 5801 5801 5799 5798 5796 5795 5793 5792 5790 5789 5786 5784 5783 5781 5779 5777 5776 5773 5771 5769 5766 5764 5761 5758 5755
5769 5773 5775 5777 5780 5782 5783 5787 5787 5788 5789 5790 5791 5792 5792 5793 5793 5793 5793 5793 5793 5793 5793 5792 5792 5791 5789 5788 5786 5785 5783 5781 5780 5778 5776 5774 5771 5770 5768 5765 5763 5761 5758 5755 5753 5750 5747 5743 5740
5767 5770 5772 5775 5776 5777 5779 5783 5781 5782 5783 5783 5784 5784 5784 5784 5784 5784 5784 5784 5784 5784 5783 5782 5782 5781 5779 5777 5776 5774 5773 5771 5769 5766 5765 5763 5761 5758 5755 5753 5750 5747 5745 5742 5738 5735 5731 5727 5723
Wind_Speed
25 25 24 22 20 19 15 14 12 10 7 5 4 2 2 3 5 6 7 7 7 8 8 8 9 10 9 8 7 6 5 5 5 6 6 7 7 7 7 7 7 8 8 8 8 8 9 9 9
26 27 27 26 23 20 18 16 14 12 8 6 4 3 3 5 7 8 8 7 7 7 8 8 9 9 8 7 6 6 5 5 6 6 6 6 6 5 5 5 6 6 6 7 7 7 8 8 8
26 29 30 30 27 23 19 17 16 13 11 8 5 3 4 6 7 8 8 8 7 7 6 7 8 7 7 6 6 5 5 5 5 5 5 5 5 4 4 4 4 5 5 6 6 6 7 7 7
26 30 32 32 29 25 22 20 19 16 14 10 7 3 4 6 7 7 8 7 6 6 6 7 7 7 6 6 6 5 5 5 5 4 4 4 3 3 2 3 4 4 5 6 7 7 7 7 7
26 29 32 33 32 28 25 23 21 19 16 12 8 6 6 7 7 6 7 6 5 4 5 6 6 6 6 6 6 6 5 5 4 4 3 3 2 2 2 2 3 4 5 6 7 8 8 8 8
26 27 30 31 32 30 28 26 23 21 18 14 11 8 6 7 7 6 6 4 4 4 5 6 6 6 7 7 6 6 5 5 5 4 3 3 2 1 1 2 3 4 5 7 8 9 9 9 9
26 25 25 27 33 33 30 29 26 24 21 17 14 10 7 7 7 5 4 3 3 4 6 7 7 8 8 7 7 7 7 7 6 5 4 3 2 2 1 2 3 4 6 8 10 11 11 11 10
27 25 22 24 32 34 33 32 30 28 24 20 16 12 9 7 7 5 3 2 3 5 7 8 9 9 9 9 9 8 8 7 7 6 5 4 3 3 3 3 3 5 7 9 10 11 12 12 12
28 25 20 20 29 35 36 34 33 31 27 22 17 14 10 8 7 5 3 3 5 7 8 9 10 11 11 10 10 9 9 8 7 6 5 4 4 4 4 4 5 6 7 9 11 12 13 13 12
30 24 18 21 28 37 39 37 35 33 29 25 20 16 11 8 7 6 4 4 6 8 9 10 10 11 11 11 11 10 9 8 7 6 6 5 5 4 4 5 6 7 8 9 11 13 13 13 13
31 25 21 24 30 38 41 40 39 36 31 27 23 18 14 10 9 6 5 6 7 9 10 11 11 11 11 11 11 10 9 8 7 7 6 6 6 6 6 6 7 8 8 10 11 12 13 13 13
32 27 24 26 31 37 42 42 41 38 33 30 26 22 17 13 10 8 6 7 8 9 10 10 10 10 10 10 10 10 10 9 8 8 7 7 7 8 8 8 8 8 9 10 11 12 13 14 14
32 29 27 28 31 36 41 44 43 39 35 31 27 23 18 15 12 10 8 9 10 10 10 10 10 10 10 10 10 10 10 9 9 9 9 9 10 10 10 11 11 11 11 12 12 13 13 14 15
33 31 29 28 31 35 40 44 44 39 36 32 28 24 20 17 15 11 9 10 10 10 10 9 10 11 11 11 11 11 11 10 10 11 11 11 12 12 13 14 14 14 14 14 14 15 15 16 16
33 31 28 27 29 33 37 41 41 40 37 33 30 26 22 19 17 14 13 12 12 11 11 11 11 12 12 12 12 12 12 12 12 12 13 13 14 15 16 17 17 17 17 17 17 17 17 18 18
32 30 27 26 27 31 35 38 39 40 38 35 31 27 23 21 18 17 16 15 13 13 12 13 13 14 15 15 15 14 14 14 14 14 15 16 17 18 19 19 20 21 21 21 21 21 20 20 21
31 29 26 26 27 30 33 36 39 40 39 36 33 29 25 23 20 19 17 16 15 15 15 15 17 18 19 19 18 18 17 17 17 17 18 19 21 22 23 23 24 25 25 25 25 25 24 24 23
29 28 26 26 27 29 30 34 39 40 39 38 34 31 27 24 21 21 20 18 17 18 18 17 18 20 23 22 21 21 22 22 22 22 23 23 24 25 26 28 29 29 29 30 30 28 26 25 25
28 27 25 26 27 28 28 30 36 38 38 37 36 33 29 26 24 23 21 20 20 20 21 21 19 19 22 23 23 25 27 28 27 28 27 27 27 29 30 31 32 32 32 32 32 30 28 27 27
27 26 25 26 26 27 27 29 32 35 36 36 36 35 31 29 27 25 23 22 21 22 22 23 22 21 23 24 26 29 31 32 32 33 31 32 32 31 32 32 32 33 34 34 32 31 31 31 31
26 25 25 26 27 27 27 28 29 32 33 34 35 35 34 32 30 28 27 26 24 23 22 23 25 25 25 27 29 32 33 34 35 36 34 34 34 35 35 35 35 34 34 35 34 33 32 33 32
25 25 25 26 27 26 27 27 27 28 30 33 33 34 35 33 32 31 29 28 28 26 25 26 27 27 28 31 33 33 33 35 36 35 35 35 35 35 35 36 34 33 34 35 35 35 34 34 35
26 27 27 27 27 26 26 26 27 27 28 30 31 32 34 34 34 33 31 30 30 29 28 28 29 30 31 34 34 34 36 37 37 37 37 36 35 35 35 36 35 35 35 35 36 36 36 36 37
26 28 28 28 27 27 26 27 27 27 27 28 29 31 33 34 34 33 33 33 32 32 31 31 33 33 34 34 35 37 38 39 38 38 38 37 37 37 38 37 37 37 37 38 38 38 39 39 40
26 28 28 28 28 28 27 28 29 28 29 29 30 31 33 35 35 36 36 36 35 34 34 35 36 37 38 38 39 39 40 41 40 39 40 41 40 40 39 39 40 40 41 42 41 40 42 42 41
24 26 27 28 28 28 28 29 29 30 30 30 31 31 32 33 35 36 37 37 37 37 38 39 39 40 40 41 42 43 43 44 44 44 44 44 44 43 42 43 42 42 43 44 43 44 43 43 44
23 24 26 26 27 28 30 30 30 30 31 32 32 32 33 34 36 38 38 39 40 40 41 41 42 42 42 43 45 46 47 47 47 47 46 45 44 44 44 45 45 44 46 46 46 48 47 48 49
23 24 25 26 26 27 29 31 31 30 31 33 34 35 35 35 37 38 40 40 42 42 42 42 42 43 45 45 47 48 49 49 49 48 47 47 46 45 46 46 47 47 49 49 50 52 51 52 53
22 23 24 25 27 28 29 31 31 32 32 34 35 36 37 38 39 39 39 39 41 42 43 43 43 44 45 46 47 48 48 48 48 48 48 48 47 47 48 49 50 51 52 54 55 56 57 58 59
20 22 23 25 26 28 29 31 31 32 33 34 36 37 38 39 40 40 40 39 39 40 40 41 43 43 44 45 46 47 48 48 48 49 49 49 49 49 50 51 52 53 55 57 58 59 60 61 61
Wind_Direction
213 206 204 204 208 212 217 224 227 225 217 213 206 218 273 289 303 305 304 296 280 270 263 259 254 251 250 252 253 256 262 267 272 277 281 282 285 291 299 307 314 318 320 322 322 323 323 323 323
219 209 207 206 209 211 217 225 230 231 229 220 219 241 293 310 316 319 313 300 289 276 263 254 248 243 242 241 240 244 254 265 273 275 276 276 277 282 294 304 311 315 317 319 319 319 319 320 320
226 216 210 207 209 212 217 225 231 232 230 224 225 251 308 319 324 320 312 300 291 277 255 243 235 229 227 227 226 230 241 254 263 266 268 269 273 280 293 304 310 312 313 314 315 316 316 316 316
233 223 215 210 208 211 216 224 232 233 232 235 238 263 316 324 325 318 310 300 288 270 241 225 216 211 210 211 211 216 227 236 243 251 257 261 267 277 295 307 313 315 316 317 316 316 316 317 318
238 232 222 214 208 210 216 224 230 237 242 243 247 270 314 322 320 314 306 293 276 248 217 203 198 194 194 196 200 206 210 214 219 226 234 241 247 260 287 307 313 315 316 316 316 317 320 322 322
241 241 232 220 210 211 216 223 229 236 240 243 247 259 292 315 318 312 301 284 254 224 200 189 181 177 177 179 183 184 183 185 188 195 200 205 210 225 275 303 307 310 312 313 312 314 315 316 318
242 246 242 225 212 210 215 222 228 233 239 242 247 255 276 303 315 311 298 272 229 198 184 172 161 157 158 160 163 165 168 172 176 180 183 187 200 219 254 294 306 309 311 311 310 310 312 313 313
240 246 247 229 214 210 214 221 227 232 237 242 247 252 264 288 303 304 283 233 190 172 165 158 152 150 152 153 156 160 164 169 174 179 185 195 208 226 249 276 293 304 309 310 310 311 312 313 312
238 244 249 232 216 209 213 219 226 232 237 241 245 251 261 277 291 296 262 203 178 168 161 155 150 149 150 153 158 163 167 173 178 183 191 205 218 232 253 271 284 296 303 308 311 311 311 311 310
236 241 242 225 213 209 212 217 224 229 233 236 240 248 257 268 280 284 251 196 178 170 162 155 152 153 156 159 165 170 175 181 187 193 202 213 220 234 254 266 277 291 300 307 312 313 313 312 309
233 235 230 221 213 210 213 216 223 228 231 234 237 244 253 263 273 273 240 201 184 173 166 161 162 166 169 172 175 180 185 191 195 203 211 216 224 238 252 261 274 286 295 304 311 315 317 316 314
230 230 227 220 215 212 213 217 222 226 229 234 237 243 251 261 264 258 240 209 193 183 181 176 177 180 185 188 190 191 194 197 201 209 217 224 232 240 250 257 271 283 292 300 307 313 316 316 314
226 225 224 222 219 214 215 218 223 225 228 233 237 242 248 255 256 251 234 210 199 198 194 194 197 201 206 206 206 207 208 209 214 220 226 232 238 244 252 259 268 277 286 293 299 306 311 312 311
223 224 225 224 222 217 215 218 223 225 228 231 237 241 245 249 249 240 221 210 208 208 209 211 216 217 220 222 223 224 224 223 225 229 234 241 245 248 255 262 269 274 281 284 289 297 302 304 305
222 224 225 225 223 218 216 219 223 224 228 230 235 240 244 247 242 233 218 214 217 218 221 228 228 228 232 234 234 236 236 236 237 241 245 250 253 256 260 265 269 274 278 281 285 291 295 297 299
220 221 222 222 220 218 217 217 220 223 227 231 234 240 243 243 240 228 221 220 220 222 230 235 237 238 240 242 243 245 246 247 249 252 255 258 262 264 266 268 271 274 276 279 281 284 287 292 294
217 218 218 219 217 218 216 215 218 223 226 230 233 236 238 239 235 227 222 224 223 220 227 236 238 245 243 244 247 252 254 254 254 257 260 263 267 269 271 272 272 275 277 277 278 280 283 287 289
214 213 215 216 216 218 216 214 218 223 226 229 231 232 232 233 230 227 224 222 224 224 228 236 242 244 243 245 251 258 260 260 259 260 263 265 268 270 274 274 273 276 279 278 277 278 282 286 287
212 211 213 215 217 219 219 217 219 224 228 230 230 230 229 229 229 229 231 229 233 237 238 239 242 243 244 248 254 259 261 262 261 262 266 269 271 273 274 274 275 277 278 277 279 281 281 284 287
209 209 210 214 218 220 221 221 223 226 229 230 230 230 230 229 229 231 233 236 238 235 237 241 244 247 248 253 260 264 263 265 265 264 266 269 272 275 276 276 278 279 279 279 279 282 283 282 284
205 206 207 211 216 219 221 223 226 228 229 231 231 230 231 232 232 232 233 237 241 241 243 246 249 250 255 260 265 267 268 269 269 269 271 274 274 277 280 280 280 280 281 281 282 282 285 284 284
202 202 204 209 214 217 218 220 224 226 227 229 230 230 230 231 233 235 237 240 245 248 252 254 255 254 258 261 264 266 270 272 275 277 277 277 279 283 285 286 286 286 286 287 285 287 286 284 284
201 201 202 208 214 216 217 219 222 224 225 227 228 228 229 230 233 236 240 243 247 251 254 258 261 260 262 263 266 269 275 277 280 281 285 285 290 291 292 292 291 291 292 292 289 288 288 287 286
202 202 204 208 214 216 218 221 221 221 223 225 226 228 230 233 236 239 244 247 250 254 257 261 264 266 267 268 269 274 277 279 282 288 290 292 293 295 293 292 293 291 291 292 292 288 288 289 289
203 206 208 212 215 219 221 225 225 224 225 227 230 232 235 238 242 244 247 249 252 254 258 262 266 267 270 272 274 277 281 285 289 291 292 292 293 293 291 292 292 290 290 291 291 290 289 289 288
205 210 213 217 220 223 225 230 230 229 231 233 236 239 242 245 249 251 254 256 258 260 262 264 267 269 271 274 277 280 283 286 287 289 290 290 290 290 289 289 289 288 289 290 290 291 290 289 289
207 210 214 220 225 230 232 235 236 236 238 239 242 245 249 253 256 258 260 261 263 265 266 266 269 270 272 274 277 279 281 284 286 287 288 287 287 287 286 286 287 287 288 289 289 290 290 290 289
211 212 217 222 227 232 236 239 242 243 244 247 250 253 255 258 259 261 263 265 266 267 268 268 270 272 274 275 277 279 280 281 283 284 284 285 285 285 285 285 285 285 287 288 288 288 289 289 288
215 220 224 229 233 237 241 244 246 249 251 253 255 258 260 263 265 266 267 269 269 271 271 270 271 272 274 276 277 278 280 281 282 283 283 283 284 284 284 285 285 286 288 288 288 288 287 288 288
222 227 232 236 239 242 245 249 251 254 256 258 260 262 264 266 268 269 270 273 274 275 276 274 273 273 275 276 276 277 278 279 280 281 282 281 281 281 283 284 285 286 287 288 288 288 289 289 289